x

Luke Offshore Test Platform - 64 Nm South Of Dauphin Island, Al (42040) Weather Station

9:20pm - Sat 23rd Sep 2017 All times are CDT. -5 hours from GMT.

  • Wind
    11mph, 16mph gusts
  • Sea Temp 84°f
  • Air Temp 83°f
  • Sea Pressure 1013.3mb
  • Luke Offshore Test Platform - 64 Nm South Of Dauphin Island, Al
  • Luke Offshore Test Platform - 64 Nm South Of Dauphin Island, Al

More Historic Weather Station data

Upgrade to MSW Pro to gain access to the past 30 days of data for over 8000 Wavebouys and Weather Stations around the globe.

Join

Comparision Forecast

View Surf forecast
   
Sat 09/23 9:20pm  -   -   -  11 16 mph 1013.3mb 84f 83f
9:10pm  -   -   -  11 13 mph 1013.3mb 84f 83f
9:00pm  -   -   -  11 16 mph 1013.2mb 84f 83f
8:50pm 3.5ft 6s 5s 11 16 mph 1013.1mb - 82f
8:40pm  -   -   -  13 16 mph 1012.9mb 84f 82f
8:30pm  -   -   -  11 16 mph 1012.8mb 84f 82f
8:20pm  -   -   -  11 16 mph 1012.7mb 84f 82f
8:10pm  -   -   -  11 16 mph 1012.8mb - 82f
8:00pm  -   -   -  11 16 mph 1012.9mb 84f 82f
7:50pm 4.5ft 6s 5s 13 16 mph 1012.9mb 84f 82f
7:40pm  -   -   -  13 18 mph 1012.8mb 84f 82f
7:30pm  -   -   -  16 18 mph 1012.8mb 84f 82f
7:20pm  -   -   -  16 20 mph 1012.9mb - 82f
7:10pm  -   -   -  16 20 mph 1012.7mb 84f 82f
7:00pm  -   -   -  16 20 mph 1012.7mb 84f 82f
6:50pm 3.5ft 6s 4s 16 20 mph 1012.7mb 84f 82f
6:40pm 3.5ft  -  4s 16 20 mph 1012.6mb 84f 82f
6:30pm  -   -   -  16 20 mph 1012.6mb 84f 82f
6:20pm  -   -   -  18 20 mph 1012.6mb 84f 82f
6:10pm  -   -   -  16 20 mph 1012.5mb 84f 82f
6:00pm  -   -   -  16 20 mph 1012.5mb 84f 82f
5:50pm 4ft 6s 4s 16 20 mph 1012.4mb 84f 82f
5:40pm  -   -   -  16 22 mph 1012.4mb 84f 82f
5:30pm  -   -   -  16 20 mph 1012.4mb 84f 82f
5:20pm  -   -   -  16 20 mph 1012.3mb 84f 82f
5:10pm  -   -   -  16 20 mph 1012.4mb 84f 82f
5:00pm  -   -   -  16 20 mph 1012.4mb 84f 82f
4:50pm 3.5ft 6s 4s 16 22 mph 1012.3mb 84f 82f
4:40pm  -   -   -  16 20 mph 1012.3mb 84f 82f
4:30pm  -   -   -  16 18 mph 1012.4mb 84f 82f
4:20pm  -   -   -  16 18 mph 1012.5mb 84f 82f
4:10pm  -   -   -  13 18 mph 1012.5mb 84f 82f
4:00pm  -   -   -  16 18 mph 1012.6mb 84f 82f
3:50pm 3.5ft 5s 4s 16 18 mph 1012.6mb 84f 82f
3:40pm  -   -   -  16 18 mph 1012.7mb 84f 82f
3:30pm  -   -   -  16 18 mph 1012.6mb 84f 82f
3:20pm  -   -   -  16 18 mph 1012.7mb 84f 82f
3:10pm  -   -   -  16 20 mph 1012.9mb 84f 82f
3:00pm  -   -   -  16 18 mph 1013mb 84f 82f
2:50pm 3.5ft  -  4s 16 20 mph 1013.3mb 84f 82f
2:40pm  -   -   -  13 20 mph 1013.1mb 84f 82f
2:30pm  -   -   -  16 18 mph 1013.1mb 84f 82f
2:20pm  -   -   -  16 18 mph 1013.1mb 84f 82f
2:10pm  -   -   -  16 18 mph 1013.2mb 84f 82f
2:00pm  -   -   -  16 18 mph 1013.2mb 84f 82f
1:50pm 3.5ft 5s 4s 16 20 mph 1013.2mb 84f 82f
1:40pm  -   -   -  16 18 mph 1013.3mb 84f 82f
1:30pm  -   -   -  16 18 mph 1013.4mb 84f 82f
1:20pm  -   -   -  16 18 mph 1013.5mb 84f 82f
1:10pm  -   -   -  16 18 mph 1013.4mb 83f 83f
1:00pm  -   -   -  13 18 mph 1013.4mb 84f 82f
12:50pm 2.5ft 5s 4s 13 18 mph 1013.5mb 84f 83f
12:40pm  -   -   -  16 18 mph 1013.7mb 84f 83f
12:30pm  -   -   -  13 18 mph 1013.8mb 83f 83f
12:20pm  -   -   -  13 16 mph 1013.8mb 83f 83f
12:10pm  -   -   -  13 16 mph 1014mb 84f 83f
12:00pm  -   -   -  13 18 mph 1014.1mb 84f 83f
11:50am 2.5ft 5s 4s 13 18 mph 1014.1mb 84f 83f
11:40am  -   -   -  16 18 mph 1014.2mb 83f 83f
11:30am  -   -   -  13 18 mph 1014.3mb 83f 83f
11:20am  -   -   -  16 18 mph 1014.5mb 83f 83f
11:10am  -   -   -  16 18 mph 1014.6mb 83f 83f
11:00am  -   -   -  16 18 mph 1014.6mb 83f 83f
10:50am 2.5ft 5s 4s 16 18 mph 1014.4mb 83f 83f
10:40am  -   -   -  13 18 mph 1014.4mb 83f 83f
10:30am  -   -   -  13 18 mph 1014.4mb 83f 83f
10:20am  -   -   -  13 18 mph 1014.3mb 83f 83f
10:10am  -   -   -  11 13 mph 1014.4mb 83f 82f
10:00am  -   -   -  9 13 mph 1014.3mb 83f 82f
9:50am 2.5ft 4s 3s 9 13 mph 1014.2mb 83f 82f
9:40am 2.5ft  -  3s 11 13 mph 1014.1mb 83f 81f
9:30am  -   -   -  11 16 mph 1014.2mb 83f 82f
9:20am  -   -   -  11 16 mph 1014mb 84f 82f
9:10am  -   -   -  11 18 mph 1014mb 84f 81f
9:00am  -   -   -  16 20 mph 1013.9mb 84f 82f
8:50am 2.5ft 4s 3s 13 16 mph 1013.9mb 84f 83f
8:40am  -   -   -  13 16 mph 1013.9mb 84f 83f
8:30am  -   -   -  13 18 mph 1013.9mb 84f 83f
8:20am  -   -   -  13 18 mph 1013.9mb 84f 83f
8:10am  -   -   -  16 18 mph 1013.9mb - 83f
8:00am  -   -   -  16 20 mph 1013.8mb 84f 82f
7:50am 2ft 4s 3s 16 18 mph 1013.7mb 84f 82f
7:40am  -   -   -  16 18 mph 1013.6mb 84f 82f
7:30am  -   -   -  13 18 mph 1013.7mb 84f 82f
7:20am  -   -   -  13 18 mph 1013.8mb 84f 82f
7:10am  -   -   -  13 18 mph 1013.7mb 84f 82f
7:00am  -   -   -  13 18 mph 1013.8mb 83f 82f
6:50am 1.6ft 4s 3s 13 20 mph 1013.6mb 83f 82f
6:40am  -   -   -  16 22 mph 1013.5mb 83f 82f
6:30am  -   -   -  16 18 mph 1013.5mb 84f 82f
6:20am  -   -   -  11 18 mph 1013.4mb 84f 81f
6:10am  -   -   -  11 27 mph 1013.3mb 84f 79f
6:00am  -   -   -  16 31 mph 1013.1mb 84f 82f
5:50am 1.3ft 4s 3s 11 13 mph 1013.2mb 84f 82f
5:40am 1.3ft  -  3s 11 13 mph 1013.2mb 83f 82f
5:30am  -   -   -  11 13 mph 1013.2mb 83f 82f
5:20am  -   -   -  11 13 mph 1013.2mb 83f 82f
5:10am  -   -   -  11 13 mph 1013mb 83f 82f
5:00am  -   -   -  11 13 mph 1012.9mb 83f 82f
4:50am 1.3ft 4s 4s 11 13 mph 1012.9mb 83f 82f
4:40am  -   -   -  11 11 mph 1012.8mb 83f 82f
4:30am  -   -   -  9 11 mph 1012.7mb 83f 82f
4:20am  -   -   -  9 11 mph 1012.7mb 83f 82f
4:10am  -   -   -  9 11 mph 1012.8mb 83f 82f
4:00am  -   -   -  9 11 mph 1012.8mb 83f 82f
3:50am 1.3ft 4s 4s 9 11 mph 1012.8mb 83f 82f
3:40am  -   -   -  9 11 mph 1012.9mb 83f 82f
3:30am  -   -   -  9 11 mph 1012.8mb 83f 82f
3:20am  -   -   -  7 9 mph 1012.9mb 84f 82f
3:10am  -   -   -  7 9 mph 1012.9mb 84f 82f
3:00am  -   -   -  7 9 mph 1012.9mb 84f 82f
2:50am 1.3ft 4s 4s 7 9 mph 1013mb 84f 82f
2:40am 1.3ft  -  4s 7 11 mph 1013mb 84f 82f
2:30am  -   -   -  7 9 mph 1013mb - 82f
2:20am  -   -   -  7 9 mph 1013.1mb 84f 82f
2:10am  -   -   -  7 9 mph 1013.1mb - 82f
2:00am  -   -   -  7 9 mph 1013.1mb 84f 82f
1:50am 1.3ft 4s 4s 7 9 mph 1013.3mb 84f 82f
1:40am 1.3ft  -  4s 7 9 mph 1013.3mb 84f 82f
1:30am  -   -   -  7 7 mph 1013.3mb 84f 82f
1:20am  -   -   -  4 7 mph 1013.3mb 84f 82f
1:10am  -   -   -  7 9 mph 1013.4mb 84f 82f
1:00am  -   -   -  7 9 mph 1013.4mb 84f 82f
12:50am 1.3ft 4s 4s 7 7 mph 1013.4mb 84f 82f
12:40am 1.3ft  -  4s 7 9 mph 1013.3mb 84f 82f
12:30am  -   -   -  7 9 mph 1013.3mb 84f 82f
12:20am  -   -   -  7 9 mph 1013.4mb 84f 82f
12:10am  -   -   -  7 9 mph 1013.4mb 84f 82f
12:00am  -   -   -  9 11 mph 1013.5mb 84f 82f
Fri 09/22 11:50pm 1.3ft 5s 4s 9 11 mph 1013.5mb 84f 82f
11:40pm  -   -   -  7 11 mph 1013.8mb 84f 82f
11:30pm  -   -   -  9 11 mph 1013.8mb 84f 82f
11:20pm  -   -   -  9 13 mph 1014mb 84f 82f
11:10pm  -   -   -  9 11 mph 1014mb 84f 82f
11:00pm  -   -   -  7 11 mph 1014mb - 82f
10:50pm 1.3ft 5s 4s 9 11 mph 1014mb 85f 82f
10:40pm  -   -   -  7 11 mph 1013.9mb 85f 82f
10:30pm  -   -   -  7 11 mph 1013.9mb 85f 82f
10:20pm  -   -   -  7 9 mph 1013.9mb 85f 82f
10:10pm  -   -   -  7 9 mph 1013.9mb 85f 82f
10:00pm  -   -   -  7 9 mph 1013.9mb 85f 82f
9:50pm 1.3ft 4s 4s 7 9 mph 1013.9mb 85f 82f
9:40pm  -   -   -  9 11 mph 1014mb 85f 82f
9:30pm  -   -   -  9 11 mph 1014mb 85f 82f
9:20pm  -   -   -  9 11 mph 1013.9mb 85f 82f
9:10pm  -   -   -  7 11 mph 1013.9mb 85f 82f
9:00pm  -   -   -  7 9 mph 1013.8mb 85f 82f
8:50pm 1.3ft 4s 4s 7 9 mph 1013.7mb 85f 82f
8:40pm 1.3ft  -  4s 7 9 mph 1013.7mb 85f 82f
8:30pm  -   -   -  7 9 mph 1013.4mb 85f 82f
8:20pm  -   -   -  7 9 mph 1013.5mb 85f 82f
8:10pm  -   -   -  7 9 mph 1013.5mb 85f 82f
8:00pm  -   -   -  7 11 mph 1013.2mb 85f 82f
7:50pm 1.3ft 5s 4s 7 9 mph 1013.2mb 85f 82f
7:40pm 1.3ft  -  4s 7 9 mph 1013.2mb 85f 82f
7:30pm  -   -   -  7 9 mph 1013.1mb 85f 82f
7:20pm  -   -   -  9 11 mph 1013mb - -
7:10pm  -   -   -  9 11 mph 1012.9mb 85f 82f
7:00pm  -   -   -  9 11 mph 1012.8mb 85f 82f
6:50pm 1.3ft  -  4s 9 11 mph 1012.9mb 85f 83f
6:40pm 1.3ft 4s 4s  -  mph - - -
6:20pm  -   -   -  7 9 mph 1013.1mb 85f 83f
6:10pm  -   -   -  4 7 mph 1013.1mb 85f 83f
6:00pm  -   -   -  7 7 mph 1013.1mb 85f 83f
5:50pm 1ft 5s 4s 7 9 mph 1013mb 86f 83f
5:40pm  -   -   -  7 9 mph 1013.1mb 86f 83f
5:30pm  -   -   -  4 9 mph 1013mb - 83f
5:20pm  -   -   -  4 7 mph 1013mb 85f 83f
5:10pm  -   -   -  4 7 mph 1013mb 85f 83f
5:00pm  -   -   -  7 7 mph 1013.1mb 85f 83f
4:50pm 1.3ft 5s 4s 7 7 mph 1013mb 85f 83f
4:40pm  -   -   -  7 9 mph 1013mb 85f 83f
4:30pm  -   -   -  7 9 mph 1013.1mb 85f 83f
4:20pm  -   -   -  7 9 mph 1013.2mb 85f 83f
4:10pm  -   -   -  7 9 mph 1013.4mb 85f 83f
4:00pm  -   -   -  7 7 mph 1013.5mb 85f 83f
3:50pm 1.3ft 5s 4s 7 9 mph 1013.7mb 85f 83f
3:40pm  -   -   -  7 9 mph 1013.8mb 85f 83f
3:30pm  -   -   -  7 9 mph 1013.8mb 85f 83f
3:20pm  -   -   -  7 7 mph 1013.9mb 85f 83f
3:10pm  -   -   -  7 9 mph 1014.1mb 85f 83f
3:00pm  -   -   -  7 9 mph 1014mb 85f 83f
2:50pm 1.3ft  -  4s 7 9 mph 1014.1mb 85f 83f
2:40pm 1.3ft 5s 4s  -  mph - - -
2:30pm  -   -   -  7 9 mph 1014.3mb 85f 83f
2:20pm  -   -   -  7 7 mph 1014.5mb 85f 83f
2:10pm  -   -   -  7 9 mph 1014.5mb 85f 83f
2:00pm  -   -   -  7 9 mph 1014.5mb 85f 83f
1:50pm 1.3ft 5s 4s 7 11 mph 1014.6mb 85f 83f
1:40pm  -   -   -  9 11 mph 1014.7mb 85f 83f
1:30pm  -   -   -  7 9 mph 1014.7mb 85f 83f
1:20pm  -   -   -  7 9 mph 1014.8mb 85f 83f
1:10pm  -   -   -  7 9 mph 1014.8mb 85f 83f
1:00pm  -   -   -  7 7 mph 1015mb 85f 83f
12:50pm 1.3ft 5s 4s 7 9 mph 1015.1mb 85f 83f
12:40pm  -   -   -  7 9 mph 1015.1mb 85f 83f
12:30pm  -   -   -  7 9 mph 1015.2mb 85f 83f
12:20pm  -   -   -  7 9 mph 1015.3mb 85f 83f
12:10pm  -   -   -  7 9 mph 1015.4mb 85f 83f
12:00pm  -   -   -  7 9 mph 1015.5mb 85f 83f
11:50am 1ft 6s 4s 7 9 mph 1015.6mb 85f 83f
11:40am 1ft  -  4s 7 9 mph 1015.7mb 84f 83f
11:30am  -   -   -  7 9 mph 1015.7mb 84f 83f
11:20am  -   -   -  7 9 mph 1015.7mb 84f 83f
11:10am  -   -   -  7 9 mph 1015.7mb 84f 83f
11:00am  -   -   -  7 9 mph 1015.7mb 84f 83f
10:50am 1ft 4s 4s 7 9 mph 1015.8mb 84f 83f
10:40am  -   -   -  7 9 mph 1015.9mb 84f 83f
10:30am  -   -   -  7 9 mph 1016mb 84f 83f
10:20am  -   -   -  7 11 mph 1015.9mb 84f 83f
10:10am  -   -   -  9 9 mph 1015.9mb 84f 83f
10:00am  -   -   -  7 11 mph 1015.9mb 84f 83f
9:50am 1ft 4s 4s 9 9 mph 1015.9mb 84f 83f
9:40am  -   -   -  9 9 mph 1015.8mb 84f 83f
9:30am  -   -   -  9 11 mph 1015.7mb 84f 83f
9:20am  -   -   -  9 11 mph 1015.7mb 84f 83f
9:10am  -   -   -  9 9 mph 1015.7mb 84f 82f
9:00am  -   -   -  7 11 mph 1015.6mb 84f 82f
8:50am 1ft 4s 4s 7 9 mph 1015.6mb 84f 82f
8:40am 1ft  -  4s 7 9 mph 1015.5mb 84f 82f
8:30am  -   -   -  7 9 mph 1015.4mb 84f 82f
8:20am  -   -   -  7 9 mph 1015.4mb 84f 82f
8:10am  -   -   -  7 9 mph 1015.4mb 84f 82f
8:00am  -   -   -  7 11 mph 1015.3mb 84f 82f
7:50am 1ft 5s 4s 7 9 mph 1015.2mb 84f 82f
7:40am  -   -   -  7 9 mph 1015.2mb 84f 82f
7:30am  -   -   -  7 9 mph 1015.2mb 84f 82f
7:20am  -   -   -  7 9 mph 1015.1mb 84f 82f
7:10am  -   -   -  7 9 mph 1015.1mb 84f 82f
7:00am  -   -   -  7 9 mph 1015.1mb 84f 82f
6:50am 1ft 4s 4s 7 7 mph 1015mb 84f 82f
6:40am 1ft  -  4s 7 9 mph 1015mb 84f 82f
6:30am  -   -   -  7 9 mph 1014.9mb 84f 82f
6:20am  -   -   -  7 9 mph 1014.8mb 84f 82f
6:10am  -   -   -  7 9 mph 1014.8mb 84f 82f
6:00am  -   -   -  7 9 mph 1014.7mb 84f 82f
5:50am 1ft 4s 4s 7 9 mph 1014.6mb - 82f
5:40am 1ft  -  4s 7 9 mph 1014.5mb 84f 82f
5:30am  -   -   -  7 9 mph 1014.4mb 84f 82f
5:20am  -   -   -  7 9 mph 1014.4mb 84f 82f
5:10am  -   -   -  7 7 mph 1014.3mb 84f 82f
5:00am  -   -   -  7 9 mph 1014.2mb 84f 82f
4:50am 1ft 5s 4s 4 7 mph 1014.2mb 84f 82f
4:40am  -   -   -  4 7 mph 1014.1mb 84f 82f
4:30am  -   -   -  4 7 mph 1014.1mb 84f 82f
4:20am  -   -   -  4 7 mph 1014mb 84f 82f
4:10am  -   -   -  4 7 mph 1014mb 84f 82f
4:00am  -   -   -  4 7 mph 1014mb 84f 82f
3:50am 1ft 5s 4s 4 7 mph 1014mb 84f 82f
3:40am  -   -   -  4 7 mph 1014mb 84f 82f
3:30am  -   -   -  4 7 mph 1014mb 84f 82f
3:20am  -   -   -  4 7 mph 1013.9mb 84f 82f
3:10am  -   -   -  4 7 mph 1013.8mb 84f 82f
3:00am  -   -   -  4 7 mph 1013.9mb 84f 82f
2:50am 1ft 5s 4s 4 4 mph 1013.9mb 84f 82f
2:40am 1ft  -  4s 4 4 mph 1013.9mb 84f 82f
2:30am  -   -   -  4 7 mph 1014mb 84f 82f
2:20am  -   -   -  4 7 mph 1013.9mb 84f 82f
2:10am  -   -   -  4 7 mph 1014mb 85f 82f
2:00am  -   -   -  4 7 mph 1014.1mb 85f 82f
1:50am 1ft 5s 4s 4 9 mph 1014.2mb 85f 82f
1:40am 1ft  -  4s 7 9 mph 1014.3mb 85f 82f
1:30am  -   -   -  7 9 mph 1014.5mb 85f 82f
1:20am  -   -   -  4 7 mph 1014.6mb 85f 82f
1:10am  -   -   -  7 7 mph 1014.5mb 85f 82f
1:00am  -   -   -  4 7 mph 1014.5mb 85f 82f
12:50am 1ft 6s 4s 7 9 mph 1014.5mb 85f 82f
12:40am  -   -   -  7 9 mph 1014.6mb 85f 82f
12:30am  -   -   -  7 9 mph 1014.8mb 85f 82f
12:20am  -   -   -  7 9 mph 1014.8mb 85f 82f
12:10am  -   -   -  7 9 mph 1014.9mb 85f 82f
12:00am  -   -   -  4 7 mph 1014.9mb 85f -
Thu 09/21 11:50pm 1ft 6s 4s 4 7 mph 1014.9mb 85f 82f
11:40pm  -   -   -  4 7 mph 1015mb 85f 82f
11:30pm  -   -   -  4 7 mph 1014.9mb 85f 82f
11:20pm  -   -   -  4 7 mph 1015.1mb 85f 82f
11:10pm  -   -   -  4 7 mph 1015.2mb 85f 82f
11:00pm  -   -   -  4 7 mph 1015.3mb 85f 82f
10:50pm 1ft 6s 4s 4 4 mph 1015.3mb 85f 82f
10:40pm  -   -   -  2 7 mph 1015.2mb 85f 82f
10:30pm  -   -   -  2 4 mph 1015.2mb 85f 82f
10:20pm  -   -   -  2 4 mph 1015.4mb 85f 82f
10:10pm  -   -   -  2 4 mph 1015.2mb 85f 82f
10:00pm  -   -   -  2 4 mph 1015.3mb 85f 82f
9:50pm 1ft 6s 4s  -  2 mph 1015.3mb 85f 82f
9:40pm 1ft  -  4s 2 4 mph 1015.1mb 85f 82f
9:30pm  -   -   -  2 4 mph 1015mb 85f 82f
9:20pm  -   -   -  2 4 mph 1014.8mb 85f 82f
9:10pm  -   -   -  2 2 mph 1014.8mb 85f 82f
9:00pm  -   -   -  2 4 mph 1014.7mb 85f 82f
8:50pm 1ft 5s 4s 2 4 mph 1014.6mb 85f 82f
8:40pm  -   -   -  2 4 mph 1014.7mb 85f 82f
8:30pm  -   -   -  2 4 mph 1014.7mb 85f 82f
8:20pm  -   -   -  2 4 mph 1014.6mb 85f 82f
8:10pm  -   -   -  2 4 mph 1014.5mb 85f 82f
8:00pm  -   -   -  2 4 mph 1014.4mb 85f 82f
7:50pm 1ft 5s 4s 2 4 mph 1014.3mb 85f 82f
7:40pm  -   -   -  2 4 mph 1014.2mb 85f 82f
7:30pm  -   -   -  2 4 mph 1014.2mb 85f 82f
7:20pm  -   -   -  2 7 mph 1014.1mb 85f 82f
7:10pm  -   -   -  2 7 mph 1014.1mb - 82f
7:00pm  -   -   -  4 7 mph 1014.1mb 85f 83f
6:50pm 0.7ft  -  4s 4 7 mph 1014.1mb 85f 83f
6:40pm  -   -   -  7 7 mph 1014.1mb 85f 83f
6:20pm  -   -   -  4 4 mph 1014.2mb 85f 83f
6:10pm  -   -   -  4 4 mph 1014.1mb 85f 83f
6:00pm  -   -   -  2 4 mph 1014mb 85f 83f
5:50pm 1ft 5s 4s 2 4 mph 1014mb 85f 83f
5:40pm  -   -   -  4 7 mph 1014mb 85f 83f
5:30pm  -   -   -  4 7 mph 1014mb - 83f
5:20pm  -   -   -  4 7 mph 1014mb - 83f
5:10pm  -   -   -  4 4 mph 1014mb 85f 83f
5:00pm  -   -   -  2 4 mph 1014mb 85f 83f
4:50pm 0.7ft  -  4s 2 4 mph 1014mb 85f 83f
4:40pm  -   -   -  2 4 mph 1014mb 85f 83f
4:30pm  -   -   -  2 4 mph 1014.1mb 86f 83f
4:20pm  -   -   -  2 7 mph 1014.1mb 86f 83f
4:10pm  -   -   -  2 4 mph 1014.2mb 85f 83f
4:00pm  -   -   -  2 7 mph 1014.4mb 85f 83f
3:50pm 1ft 5s 3s 4 7 mph 1014.5mb 85f 83f
3:40pm  -   -   -  4 7 mph 1014.6mb 85f 83f
3:30pm  -   -   -  7 9 mph 1014.6mb 85f 83f
3:20pm  -   -   -  7 9 mph 1014.8mb 85f 83f
3:10pm  -   -   -  7 7 mph 1014.9mb 85f 83f
3:00pm  -   -   -  7 9 mph 1015.1mb 85f 82f
2:50pm 1ft 3s 3s 7 9 mph 1015.3mb 85f 83f
2:40pm 1ft  -  3s 4 7 mph 1015.4mb 85f 83f
2:30pm  -   -   -  7 9 mph 1015.5mb 85f 83f
2:20pm  -   -   -  7 9 mph 1015.6mb 85f 83f
2:10pm  -   -   -  7 9 mph 1015.7mb 85f 83f
2:00pm  -   -   -  7 9 mph 1015.8mb 85f 82f
1:50pm 1ft 3s 3s 7 9 mph 1015.9mb 85f 83f
1:40pm 1ft  -  3s 7 9 mph 1016.1mb 85f 83f
1:30pm  -   -   -  7 9 mph 1016.2mb 85f 83f
1:20pm  -   -   -  7 9 mph 1016.2mb 85f 83f
1:10pm  -   -   -  7 9 mph 1016.4mb 85f 83f
1:00pm  -   -   -  7 9 mph 1016.5mb 85f 83f
12:50pm 1ft 3s 3s 7 9 mph 1016.6mb 85f 83f
12:40pm  -   -   -  7 9 mph 1016.8mb 84f 83f
12:30pm  -   -   -  7 9 mph 1016.8mb 84f 83f
12:20pm  -   -   -  9 11 mph 1017mb 84f 83f
12:10pm  -   -   -  9 11 mph 1016.9mb 85f 83f
12:00pm  -   -   -  9 11 mph 1017mb 85f 83f
11:50am 1ft 3s 3s 9 11 mph 1017mb 85f 83f
11:40am  -   -   -  9 11 mph 1017.1mb 85f 83f
11:30am  -   -   -  9 11 mph 1017.1mb 85f 83f
11:20am  -   -   -  9 11 mph 1017mb 85f 83f
11:10am  -   -   -  9 11 mph 1017.1mb 84f 83f
11:00am  -   -   -  11 13 mph 1017.1mb 84f 83f
10:50am 1ft  -  3s 11 13 mph 1017.3mb 84f 83f
10:40am 1ft  -  3s 9 13 mph 1017.2mb 84f 83f
10:30am  -   -   -  9 11 mph 1017.1mb 85f 83f
10:20am  -   -   -  9 11 mph 1017.1mb 85f 83f
10:10am  -   -   -  9 13 mph 1017.1mb 84f 83f
10:00am  -   -   -  9 11 mph 1017.1mb 84f 83f
9:50am 0.7ft  -  4s 9 11 mph 1017.1mb 84f 83f
9:40am 0.7ft  -  4s 11 13 mph 1017mb 84f 83f
9:30am  -   -   -  9 11 mph 1017.1mb 84f 83f
9:20am  -   -   -  9 11 mph 1017.1mb - 83f
9:10am  -   -   -  9 11 mph 1017.1mb 84f 83f
9:00am  -   -   -  9 11 mph 1017.1mb 83f 83f
8:50am 0.7ft  -  4s 9 11 mph 1017mb 83f 83f
8:40am 0.7ft  -  4s 9 11 mph 1017mb 84f 83f
8:30am  -   -   -  9 11 mph 1017mb 84f 83f
8:20am  -   -   -  9 11 mph 1016.8mb 84f 83f
8:10am  -   -   -  9 11 mph 1016.7mb 85f 83f
8:00am  -   -   -  9 11 mph 1016.6mb 85f 82f
7:50am 1ft 5s 4s 9 9 mph 1016.5mb 85f 82f
7:40am  -   -   -  9 11 mph 1016.4mb 85f 82f
7:30am  -   -   -  9 9 mph 1016.5mb 85f 82f
7:20am  -   -   -  7 9 mph 1016.4mb 84f 82f
7:10am  -   -   -  7 9 mph 1016.2mb 85f 82f
7:00am  -   -   -  7 9 mph 1016.2mb 85f 82f
6:50am 1ft 4s 4s 7 9 mph 1016.1mb 85f 82f
6:40am  -   -   -  7 9 mph 1016.1mb 85f 82f
6:30am  -   -   -  7 9 mph 1015.9mb 85f 82f
6:20am  -   -   -  7 9 mph 1015.8mb 85f 82f
6:10am  -   -   -  7 9 mph 1015.7mb 85f -
6:00am  -   -   -  7 9 mph 1015.6mb 84f 82f
5:50am 1ft 5s 4s 7 9 mph 1015.6mb 84f 82f
5:40am 1ft  -  4s 7 9 mph 1015.5mb 84f 82f
5:30am  -   -   -  7 9 mph 1015.4mb 83f 82f
5:20am  -   -   -  7 9 mph 1015.4mb 84f 82f
5:10am  -   -   -  7 7 mph 1015.4mb 84f 82f
5:00am  -   -   -  4 7 mph 1015.4mb 84f 82f
4:50am 0.7ft  -  4s 4 7 mph 1015.4mb 84f 82f
4:40am 0.7ft  -  4s 4 7 mph 1015.4mb 84f 82f
4:30am  -   -   -  4 4 mph 1015.2mb 84f 82f
4:20am  -   -   -  4 4 mph 1015.2mb 83f 82f
4:10am  -   -   -  4 4 mph 1015.2mb 84f 82f
4:00am  -   -   -  4 4 mph 1015.2mb 83f 82f
3:50am 0.7ft  -  4s 4 4 mph 1015.2mb 83f 82f
3:40am 0.7ft  -  4s 2 4 mph 1015.2mb - 82f
3:30am  -   -   -  2 4 mph 1015.2mb 83f 82f
3:20am  -   -   -  2 4 mph 1015.2mb 83f 82f
3:10am  -   -   -  4 4 mph 1015.3mb 83f 82f
3:00am  -   -   -  4 4 mph 1015.4mb 84f 82f
2:50am 0.7ft  -  4s 2 4 mph 1015.4mb 83f 82f
2:40am 0.7ft  -  4s 2 2 mph 1015.3mb 83f 82f
2:30am  -   -   -   -  2 mph 1015.4mb 83f 82f
2:20am  -   -   -   -  0 mph 1015.4mb - 82f
2:10am  -   -   -   -  2 mph 1015.5mb 83f 82f
2:00am  -   -   -   -  2 mph 1015.5mb 84f 82f
1:50am 0.7ft  -  4s 2 2 mph 1015.5mb 84f 82f
1:40am 0.7ft  -  4s  -  2 mph 1015.5mb 84f 82f
1:30am  -   -   -   -  2 mph 1015.5mb 84f 82f
1:20am  -   -   -  2 2 mph 1015.6mb 84f 82f
1:10am  -   -   -  4 4 mph 1015.4mb 84f 82f
1:00am  -   -   -  4 7 mph 1015.4mb 84f 82f
12:50am 0.7ft  -  4s 4 9 mph 1015.2mb 84f 82f
12:40am  -   -   -  4 7 mph 1015.5mb 84f 82f
12:30am  -   -   -  7 7 mph 1015.5mb 84f 82f
12:20am  -   -   -  4 7 mph 1015.5mb 84f 82f
12:10am  -   -   -  4 7 mph 1015.5mb 84f 82f
12:00am  -   -   -  4 7 mph 1015.7mb 84f 82f
Wed 09/20 11:50pm 0.7ft  -  4s 4 7 mph 1015.7mb 84f 82f
11:40pm  -   -   -  4 7 mph 1015.8mb 84f 82f
11:30pm  -   -   -  4 4 mph 1015.8mb 84f 82f
11:20pm  -   -   -  4 4 mph 1015.8mb 84f 82f
11:10pm  -   -   -  2 4 mph 1015.9mb 84f 82f
11:00pm  -   -   -  4 4 mph 1016mb 84f 82f
10:50pm 0.7ft  -  4s 4 4 mph 1016.1mb 84f 82f
10:40pm  -   -   -  2 4 mph 1016.1mb 84f 82f
10:30pm  -   -   -  2 2 mph 1016.3mb 84f 82f
10:20pm  -   -   -   -  2 mph 1016.2mb 84f 82f
10:10pm  -   -   -   -  2 mph 1016.3mb 84f 82f
10:00pm  -   -   -   -  0 mph 1016.2mb 84f 82f
9:50pm 0.7ft  -  4s  -  2 mph 1016.4mb 84f 82f
9:40pm  -   -   -   -  0 mph 1016.3mb 84f 82f
9:30pm  -   -   -   -  0 mph 1016.3mb 84f 83f
9:20pm  -   -   -   -  0 mph 1016.4mb 84f 83f
9:10pm  -   -   -   -  2 mph 1016.3mb 84f 83f
9:00pm  -   -   -   -  2 mph 1016.2mb - 83f
8:50pm 0.7ft  -  4s  -  2 mph 1016.2mb 84f 83f
8:40pm 0.7ft  -  4s  -  2 mph 1016.1mb 84f 83f
8:30pm  -   -   -   -  2 mph 1015.9mb 84f 83f
8:20pm  -   -   -   -  2 mph 1015.9mb 85f 83f
8:10pm  -   -   -   -  2 mph 1015.8mb 85f 83f
8:00pm  -   -   -   -  4 mph 1015.7mb - 83f
7:50pm 0.7ft  -  4s 2 4 mph 1015.7mb 84f 83f
7:40pm  -   -   -  2 4 mph 1015.6mb 84f 83f
7:30pm  -   -   -  2 4 mph 1015.4mb 84f 83f
7:20pm  -   -   -  4 4 mph 1015.4mb 84f 83f
7:10pm  -   -   -  4 4 mph 1015.3mb 84f 83f
7:00pm  -   -   -  2 4 mph 1015.1mb 84f 83f
6:50pm 0.7ft  -  4s 2 4 mph 1015.2mb 84f 83f
6:40pm  -   -   -  2 4 mph 1015.1mb 84f 84f
6:30pm  -   -   -  2 4 mph 1015.1mb 84f 84f
6:20pm  -   -   -  4 4 mph 1015.2mb 84f 83f
6:10pm  -   -   -  4 4 mph 1015.2mb 84f 83f
6:00pm  -   -   -  2 7 mph 1015.1mb 85f 83f
5:50pm 0.7ft  -  4s 2 4 mph 1015.1mb 85f 83f
5:40pm 0.7ft  -  4s 2 4 mph 1015.1mb 85f 83f
5:30pm  -   -   -  2 4 mph 1015mb 85f 84f
5:20pm  -   -   -  2 4 mph 1015.1mb 85f 83f
5:10pm  -   -   -  2 4 mph 1015.1mb 85f 83f
5:00pm  -   -   -  2 4 mph 1015.1mb 85f 83f
4:50pm 0.7ft  -  4s 2 7 mph 1015.1mb 85f 83f
4:40pm 0.7ft  -  4s 2 2 mph 1015.1mb 85f 83f
4:30pm  -   -   -  2 4 mph 1015.1mb 85f 84f
4:20pm  -   -   -  2 4 mph 1015.2mb 85f 84f
4:10pm  -   -   -  2 4 mph 1015.1mb 85f 84f
4:00pm  -   -   -   -  4 mph 1015.3mb 85f 84f
3:50pm 0.7ft  -  4s  -  0 mph 1015.4mb 85f 84f
3:40pm  -   -   -   -  2 mph 1015.4mb 85f 84f
3:30pm  -   -   -   -  2 mph 1015.4mb 85f 85f
3:20pm  -   -   -   -  0 mph 1015.5mb 85f 84f
3:10pm  -   -   -  2 4 mph 1015.7mb 85f 84f
3:00pm  -   -   -  2 4 mph 1015.9mb 85f -
2:50pm 0.7ft  -  4s  -  4 mph 1016mb 85f 85f
2:40pm 0.7ft  -  4s  -  2 mph 1016.1mb 85f 84f
2:30pm  -   -   -  2 2 mph 1016.1mb 85f 84f
2:20pm  -   -   -  2 4 mph 1016.2mb 85f 85f
2:10pm  -   -   -   -  2 mph 1016.3mb 85f 85f
2:00pm  -   -   -   -  2 mph 1016.4mb 85f 84f
1:50pm 0.7ft  -  3s  -  2 mph 1016.5mb 85f 84f
1:40pm  -   -   -  2 4 mph 1016.5mb 84f 84f
1:30pm  -   -   -  2 4 mph 1016.7mb 84f 83f
1:20pm  -   -   -  2 4 mph 1016.8mb 84f 83f
1:10pm  -   -   -  2 4 mph 1017mb 84f 83f
1:00pm  -   -   -  2 4 mph 1017mb 84f 83f
12:50pm 0.7ft  -  3s 2 4 mph 1017.1mb - 83f
12:40pm  -   -   -  2 4 mph 1017.2mb 84f 83f
12:30pm  -   -   -  2 4 mph 1017.3mb 84f 84f
12:20pm  -   -   -   -  4 mph 1017.3mb 84f 84f
12:10pm  -   -   -   -  2 mph 1017.3mb 84f 84f
12:00pm  -   -   -  2 2 mph 1017.3mb 84f 83f
11:50am 0.7ft  -  3s 2 4 mph 1017.3mb 84f 83f
11:40am  -   -   -  2 4 mph 1017.3mb 84f 83f
11:30am  -   -   -  2 4 mph 1017.3mb 84f 83f
11:20am  -   -   -  2 4 mph 1017.4mb 84f 83f
11:10am  -   -   -  2 4 mph 1017.4mb 84f 83f
11:00am  -   -   -  4 4 mph 1017.5mb 84f 83f
10:50am 0.7ft  -  3s 2 4 mph 1017.4mb 84f 83f
10:40am  -   -   -  2 4 mph 1017.3mb 84f 83f
10:30am  -   -   -  4 4 mph 1017.4mb 84f 83f
10:20am  -   -   -  2 4 mph 1017.3mb 84f 83f
10:10am  -   -   -  4 4 mph 1017.3mb 84f 83f
10:00am  -   -   -  4 4 mph 1017.2mb 84f 83f
9:50am 1ft 5s 3s 4 4 mph 1017.2mb 84f 83f
9:40am 1ft  -  3s 4 4 mph 1017.1mb 84f 83f
9:30am  -   -   -  4 7 mph 1016.8mb - 83f
9:20am  -   -   -  4 7 mph 1016.8mb 83f 83f
9:10am  -   -   -  4 7 mph 1016.7mb - 83f
9:00am  -   -   -  4 7 mph 1016.6mb 83f 82f
8:50am 1ft 5s 3s 7 7 mph 1016.5mb 83f 82f
8:40am  -   -   -  4 7 mph 1016.4mb 83f 82f
8:30am  -   -   -  7 7 mph 1016.5mb 83f 82f
8:20am  -   -   -  7 9 mph 1016.3mb 83f 82f
8:10am  -   -   -  7 7 mph 1016.2mb 83f 82f
8:00am  -   -   -  7 9 mph 1016.3mb 83f 82f
7:50am 1ft 5s 3s 7 9 mph 1016.3mb 84f 82f
7:40am  -   -   -  7 9 mph 1016.3mb 84f 82f
7:30am  -   -   -  7 9 mph 1016.2mb 84f 82f
7:20am  -   -   -  7 9 mph 1016.2mb 84f 82f
7:10am  -   -   -  7 9 mph 1016.1mb 84f 82f
7:00am  -   -   -  7 9 mph 1016.1mb 83f 82f
6:50am 1ft 5s 3s 9 11 mph 1016mb - 82f
6:40am 1ft  -  3s 9 9 mph 1016mb 83f 82f
6:30am  -   -   -  7 9 mph 1015.9mb 83f 82f
6:20am  -   -   -  9 9 mph 1015.9mb 84f 82f
6:10am  -   -   -  9 11 mph 1015.8mb 84f 82f
6:00am  -   -   -  9 11 mph 1015.6mb 84f 82f
5:50am 1ft 5s 3s 9 11 mph 1015.4mb 84f 82f
5:40am 1ft  -  3s 9 11 mph 1015.3mb 84f 82f
5:30am  -   -   -  9 11 mph 1015.3mb 84f 82f
5:20am  -   -   -  9 11 mph 1015.2mb 84f 82f
5:10am  -   -   -  9 11 mph 1015.1mb 84f 82f
5:00am  -   -   -  9 11 mph 1015.1mb - 82f
4:50am 0.7ft  -  4s 11 13 mph 1015mb 84f 82f
4:40am 0.7ft  -  4s 9 11 mph 1015mb 85f 82f
4:30am  -   -   -  9 11 mph 1015mb 85f 82f
4:20am  -   -   -  9 11 mph 1015mb 85f 82f
4:10am  -   -   -  9 11 mph 1015mb 85f 82f
4:00am  -   -   -  7 9 mph 1015.1mb 85f 82f
3:50am 0.7ft  -  4s 9 9 mph 1015.1mb 85f 82f
3:40am  -   -   -  9 11 mph 1015mb 85f 82f
3:30am  -   -   -  7 9 mph 1015mb 85f 82f